Regional Weather Roundup
Issued by NWS Upton, NY

Current Version | Previous Version | Text Only | Print | Product List | Glossary On
Versions: 1 2 3 4 5 6 7 8 9 10 11 12 13 14 15 16 17 18 19 20 21 22 23 24 25 26 27 28 29 30 31 32 33 34 35 36 37 38 39 40 41 42 43 44 45 46 47 48 49 50
000
ASUS41 KOKX 012018
RWROKX

REGIONAL WEATHER ROUNDUP
NATIONAL WEATHER SERVICE NEW YORK NY
400 PM EDT WED JUL 01 2015

NOTE: "FAIR" INDICATES FEW OR NO CLOUDS BELOW 12,000 FEET WITH NO
SIGNIFICANT WEATHER AND/OR OBSTRUCTIONS TO VISIBILITY.

NYZ071-072-176-178-NJZ106-104-012100-
NEW YORK CITY METRO AREA


CITY           SKY/WX    TMP DP  RH WIND       PRES   REMARKS
CENTRAL PARK   MOSUNNY   81  61  50 SW8       29.78F
LAGUARDIA APRT MOSUNNY   83  60  45 SW8G21    29.74F
KENNEDY INTL   SUNNY     81  67  62 S13       29.76F
NEWARK/LIBERTY PTSUNNY   84  61  45 SW18G28   29.75F
BRNX BOT. GARD   N/A     82  59  44 NW9       29.77R
TETERBORO      MOSUNNY   84  59  42 SW17G25   29.74F
$$

NYZ177-179-078>081-012100-
LONG ISLAND NEW YORK

CITY           SKY/WX    TMP DP  RH WIND       PRES   REMARKS
FARMINGDALE    SUNNY     80  66  62 S18       29.76F
ISLIP          MOSUNNY   80  66  62 SW13      29.75F
SHIRLEY        SUNNY     79  66  64 S15G22    29.77F
WESTHAMPTON    SUNNY     77  66  68 SW13G25   29.78F
MONTAUK POINT    N/A     77  66  68 SW9G22    29.77F
$$

NYZ052-065-067-012100-
HUDSON VALLEY

CITY           SKY/WX    TMP DP  RH WIND       PRES   REMARKS
WHITE PLAINS   MOSUNNY   81  60  48 W13G21    29.75F
NEWBURGH       MOSUNNY   79  63  57 W14G28    29.75F
MONTGOMERY     NOT AVBL
POUGHKEEPSIE   MOSUNNY   81  59  47 SW12G24   29.72F
ALBANY         LGT RAIN  76  60  57 W20G28    29.71R
$$

NJZ001-105-106-008-010-013-015-019>022-104-012100-
NEW JERSEY

CITY           SKY/WX    TMP DP  RH WIND       PRES   REMARKS
NEWARK/LIBERTY PTSUNNY   84  61  45 SW18G28   29.75F
TETERBORO      MOSUNNY   84  59  42 SW17G25   29.74F
CALDWELL       MOSUNNY   82  60  47 W8G22     29.76F
MORRISTOWN     PTSUNNY   84  64  51 W12G21    29.77F
SOMERVILLE     MOSUNNY   81  63  54 VRB5      29.76S
SUSSEX         MOSUNNY   79  60  52 SW7       29.77S
ANDOVER          N/A     78  63  59 SW8       29.79S
TRENTON        MOSUNNY   83  62  49 W13       29.78F
MILLVILLE      MOSUNNY   82  64  54 W14       29.83S
ATLANTIC CITY  PTSUNNY   84  64  50 SW13      29.81F
WRIGHTSTOWN    MOSUNNY   84  65  53 W20       29.77F
TOMS RIVER     MOSUNNY   84  63  48 SW12G18   29.79F
BELMAR         MOSUNNY   84  63  48 W12G17    29.78F
$$

PAZ047>061-062-071-012100-
EASTERN PENNSYLVANIA

CITY           SKY/WX    TMP DP  RH WIND       PRES   REMARKS
PHILADELPHIA   MOSUNNY   84  64  50 W16       29.81R
ALLENTOWN      MOSUNNY   81  63  54 W9        29.80S
SCRANTON       PTSUNNY   78  59  51 W17G29    29.80S
$$

CTZ002-004>006-009-010-012-RIZ004-006-007-MAZ004-011-015-012100-
SOUTHERN NEW ENGLAND
 IN CT

CITY           SKY/WX    TMP DP  RH WIND       PRES   REMARKS
BRADLEY INTL   MOSUNNY   83  62  49 SW10      29.70F
HARTFORD       MOSUNNY   82  63  52 SW14G22   29.71F
DANBURY        MOSUNNY   79  60  52 SW15G22   29.75F
WTRBRY/OXFORD    N/A     79  63  57 W12G17    29.78S
BRIDGEPORT     SUNNY     83  65  54 SW14      29.74F
MERIDEN        MOSUNNY   82  62  50 SW10G17   29.73F
NEW HAVEN      MOSUNNY   79  64  60 SW10G18   29.74F
CHESTER        FAIR      79  64  61 SW7G21    29.76S
GROTON         MOSUNNY   76  66  71 SW14      29.74F
WILLIMANTIC    MOSUNNY   81  65  58 SW15      29.73F

 IN RI

CITY           SKY/WX    TMP DP  RH WIND       PRES   REMARKS
PROVIDENCE     MOSUNNY   80  65  59 SW14G22   29.73S
BLOCK ISLAND   SUNNY     72  64  78 SW16G26   29.77F
WESTERLY       SUNNY     79  67  66 SW13G20   29.76S

 IN MA

CITY           SKY/WX    TMP DP  RH WIND       PRES   REMARKS
BOSTON         MOSUNNY   81  65  58 SW18G25   29.69F
WORCESTER      PTSUNNY   76  63  64 SW15      29.73F
WESTFIELD      MOSUNNY   81  61  50 SW15      29.70F
PROVINCETOWN   SUNNY     75  16  10 S17G25    29.73F
NANTUCKET      SUNNY     70  65  84 S13       29.80S
$$

ANZ330-335-338-340-345-350-353-355-012100-
COASTAL MARINE OBSERVATIONS


STATION/POSITION TIME  SKY/WX   TEMP    WIND        PRES    VSBY  WAVE
                                AIR SEA DIR/SP/G                  HT/PER
                 (UTC)          (F)     (DEG/KT/KT) (MB)    (MI)  (FT/S)
NY HARB ENTRANCE 1950            72 70  190/ 14/ 16 1007.7          3/ 6
4S FIRE IS       1903               67                N/A           4/ 8
20S FIRE ISLAND  1950            70 67  210/ 12/ 14 1008.3          4/ 7
GREAT SOUTH BAY  1915            73 75  240/ 16/ 19   N/A
23SW MTP         1950            68 66  230/ 12/ 14 1008.2          4/ 7
HUDSON CANYON    NOT AVBL
KINGS POINT      1900            77 67  270/  6/  6 1007.2
CENTRAL LI SOUND NOT AVBL
EASTERN LI SOUND 1900            71 64  230/  8/ 12   N/A
ROBBINS REEF     1900            80     250/ 19/ 26 1006.8
$$


>>>>>>>>>>>>>>>>>>>>>>>>>>>> KEY <<<<<<<<<<<<<<<<<<<<<<<<<<<
>                                                          <
>     SKY/WX - SKY CONDITION/PRESENT WEATHER               <
>     TMP    - TEMPERATURE IN FAHRENHEIT                   <
>     DP     - DEWPOINT IN FAHRENHEIT                      <
>     RH     - RELATIVE HUMIDITY IN PERCENT                <
>     WIND   - DIRECTION AND SPEED IN MPH                  <
>     PRES   - MEAN SEA LEVEL PRESSURE IN INCHES OF HG     <
>     WCI    - WIND CHILL INDEX                            <
>     VSB    - VISIBILITY IN MILES                         <
>     HX     - HEAT INDEX                                  <
>     TC     - TEMPERATURE IN CELSIUS                      <
>     VRB    - VARIABLE WIND DIRECTION                     <
>                                                          <
>>>>>>>>>>>>>>>>>>>>>>>>>>>> KEY <<<<<<<<<<<<<<<<<<<<<<<<<<<





USA.gov is the U.S. government's official web portal to all federal, state and local government web resources and services.